[[{"header":{"parameterUnit":"m.s-1","parameterCategory":2,"la1":30.2991,"la2":30.254,"lo1":-89.0895,"lo2":-89.0444,"dy":0.0017,"dx":0.0017,"nx":28,"ny":28,"refTime":"2024-03-01T09:00:00:Z","depth":"0","parameterNumber":2,"parameterNumberName":"U-component_of_CURRENTS"},"data":[0,0,0,0,0,0,0,0,0,0,0,0,0,0,0,0,0,0,0,0,0,0,0,0,0,0,0,0,0,0,0,0,0,0,0,0,0,0,0,0,0,0,0,0,0,0,0,0,0,0,0,0,0,0,0,0,0,0,-0.3913,-0.3913,0,-0.3908,-0.3907,-0.3906,-0.3867,-0.3867,-0.3867,-0.3866,-0.3711,-0.3707,-0.3703,0,0,0,0,0,0,0,0,0,0,0,0,0,-0.3688,-0.3692,-0.3913,-0.3913,-0.3914,-0.3908,-0.3907,-0.3906,-0.3867,-0.3867,-0.3866,-0.3866,-0.3712,-0.3707,-0.3702,0,0,0,0,0,0,0,0,0,0,0,0,0,-0.3735,-0.3694,-0.3912,-0.3901,-0.3901,-0.3909,-0.3907,-0.3906,-0.3867,-0.3867,-0.3866,-0.3866,-0.3714,-0.3708,-0.3702,-0.3666,0,0,-0.3683,-0.368,0,0,0,0,0,0,0,0,-0.3733,-0.3743,-0.3902,-0.3902,-0.3902,-0.3897,-0.3771,-0.3822,-0.3867,-0.3869,-0.3866,-0.3866,-0.3766,-0.3755,-0.3742,-0.3658,-0.3652,-0.3682,-0.3679,-0.3676,-0.3674,0,0,0,0,0,0,0,-0.373,-0.3741,-0.3901,-0.3903,-0.3903,-0.3829,-0.3836,-0.378,-0.3807,-0.3869,-0.3868,-0.3884,-0.3763,-0.3748,-0.3738,-0.3649,-0.3682,-0.3677,-0.3673,-0.3671,-0.3519,-0.3519,0,0,0,0,0,0,-0.3763,-0.374,-0.3901,-0.3901,-0.3827,-0.3835,-0.3842,-0.389,-0.3811,-0.3803,-0.3884,-0.3882,-0.3759,-0.3745,-0.3732,-0.3701,-0.3676,-0.367,-0.3667,-0.3519,-0.3519,-0.3519,0,0,0,0,0,0,-0.3758,-0.3778,-0.3901,-0.3825,-0.3838,-0.3841,-0.3893,-0.389,-0.3885,-0.3826,-0.3813,-0.3885,-0.3758,-0.3741,-0.3685,-0.3694,-0.3668,-0.3662,-0.352,-0.3519,-0.3519,-0.3628,0,0,0,0,0,0,-0.3752,-0.3777,-0.3808,-0.383,-0.3844,-0.3913,-0.3895,-0.3891,-0.3899,-0.3897,-0.3822,-0.3807,-0.3757,-0.3695,-0.3679,-0.3685,-0.3657,-0.352,-0.352,-0.3519,-0.3625,-0.3631,-0.3637,0,0,0,0,0,-0.3745,-0.3798,-0.381,-0.3829,-0.3893,-0.3914,-0.3913,-0.3905,-0.39,-0.3898,-0.3847,-0.381,-0.3679,-0.369,-0.3671,-0.3676,-0.3521,-0.352,-0.3519,-0.3622,-0.363,-0.3636,0,0,0,0,0,0,-0.371,-0.3801,-0.3814,-0.3892,-0.3905,-0.3912,-0.3916,-0.3914,-0.3875,-0.3867,-0.3804,-0.3785,-0.3739,-0.3687,-0.37,-0.3627,-0.3594,-0.359,-0.3678,-0.3685,-0.3691,-0.3719,-0.3652,0,0,0,0,0,-0.3724,-0.3788,-0.384,-0.3892,-0.3908,-0.3911,-0.3917,-0.3918,-0.3898,-0.3882,-0.3831,-0.3771,-0.3719,-0.3689,-0.363,-0.359,-0.3568,-0.3579,-0.3585,-0.359,-0.3599,-0.3577,-0.3583,-0.3516,-0.3516,-0.3516,0,0,-0.3721,-0.3781,-0.3814,-0.3888,-0.3895,-0.3918,-0.3911,-0.3932,-0.3938,-0.3868,-0.3839,-0.3787,-0.3712,-0.367,-0.3645,-0.363,-0.36,-0.3589,-0.3595,-0.36,-0.3577,-0.3583,-0.359,-0.3515,-0.3516,-0.3516,0,0,-0.3731,-0.3805,-0.3847,-0.3874,-0.3914,-0.3924,-0.3938,-0.3949,-0.3941,-0.3914,-0.3868,-0.383,-0.3739,-0.3703,-0.367,-0.367,-0.3631,-0.3644,-0.3699,-0.3678,-0.3685,-0.369,-0.3692,-0.3697,-0.3649,-0.365,-0.365,0,-0.3715,-0.3796,-0.385,-0.3889,-0.3918,-0.3934,-0.3961,-0.3958,-0.3942,-0.3939,-0.3913,-0.3817,-0.3758,-0.3726,-0.3728,-0.3687,-0.3675,-0.3686,-0.3691,-0.3695,-0.3698,-0.3699,-0.3703,-0.3655,-0.3654,-0.3654,-0.3653,0,-0.3748,-0.3809,-0.3834,-0.3902,-0.3931,-0.3963,-0.399,-0.3997,-0.399,-0.3981,-0.395,-0.3879,-0.3825,-0.3804,-0.3764,-0.3761,-0.3746,-0.3705,-0.3685,-0.3713,-0.371,-0.3712,-0.3662,-0.366,-0.3659,-0.3657,0,0,-0.3715,-0.3836,-0.384,-0.3883,-0.3951,-0.3982,-0.4008,-0.4036,-0.4059,-0.402,-0.4032,-0.3954,-0.3928,-0.3888,-0.3841,-0.3829,-0.3851,-0.3787,-0.3784,-0.3813,-0.3827,-0.3813,-0.3813,-0.3816,-0.3816,-0.3816,-0.3825,0,-0.3711,-0.3796,-0.3858,-0.392,-0.3967,-0.4017,-0.4048,-0.4076,-0.4078,-0.4087,-0.404,-0.4014,-0.3956,-0.3939,-0.3919,-0.3861,-0.3856,-0.3853,-0.3775,-0.3773,-0.3776,-0.3814,-0.3785,-0.379,-0.3827,-0.3827,-0.3827,0,-0.3705,-0.3778,-0.3844,-0.3966,-0.3991,-0.4019,-0.4097,-0.4127,-0.4151,-0.4157,-0.4136,-0.4098,-0.4071,-0.4017,-0.3952,-0.3954,-0.3902,-0.3863,-0.3862,-0.3811,-0.3761,-0.3759,-0.3791,-0.3771,-0.3829,-0.3829,-0.3829,0,-0.3647,-0.3766,-0.3826,-0.3864,-0.399,-0.402,-0.4073,-0.4125,-0.4167,-0.419,-0.4218,-0.4173,-0.4153,-0.4084,-0.3995,-0.3976,-0.3935,-0.3889,-0.3834,-0.3833,-0.3773,-0.3766,-0.3792,-0.3853,-0.3853,-0.3853,-0.3853,0,-0.363,-0.3672,-0.3802,-0.3834,-0.3907,-0.4001,-0.4061,-0.4113,-0.4188,-0.4241,-0.4235,-0.4249,-0.4169,-0.413,-0.4038,-0.3951,-0.3961,-0.3861,-0.3835,-0.381,-0.3807,-0.3754,-0.3736,-0.3854,-0.3854,-0.3854,-0.3854,0,-0.3536,-0.3627,-0.3695,-0.3831,-0.3875,-0.3911,-0.4052,-0.4111,-0.4191,-0.4261,-0.4275,-0.4307,-0.425,-0.4177,-0.4076,-0.401,-0.3878,-0.3887,-0.388,-0.3853,-0.3775,-0.3763,-0.3713,-0.3617,-0.3835,-0.3835,-0.3835,0,-0.3499,-0.3523,-0.3656,-0.3692,-0.3742,-0.3832,-0.3913,-0.4066,-0.4143,-0.4279,-0.4313,-0.4311,-0.4247,-0.413,-0.4034,-0.3909,-0.3848,-0.3847,-0.3794,-0.3789,-0.3756,-0.3719,-0.3638,-0.3766,-0.3765,-0.3764,-0.3764,0,-0.3393,-0.3422,-0.3472,-0.3564,-0.3645,-0.3738,-0.3862,-0.3924,-0.4114,-0.4153,-0.417,-0.4125,-0.4128,-0.4002,-0.3934,-0.3837,-0.3794,-0.3829,-0.3814,-0.3707,-0.3676,-0.3565,-0.3763,-0.3758,-0.3759,-0.3759,-0.3759,-0.376,-0.3265,-0.3265,-0.3323,-0.3387,-0.3496,-0.3551,-0.3469,-0.3624,-0.365,-0.3569,-0.389,-0.371,-0.3978,-0.3841,-0.3786,-0.3753,-0.3695,-0.3703,-0.3693,-0.366,-0.3556,-0.376,-0.3727,-0.3727,-0.3727,-0.3727,-0.3728,0,-0.3086,-0.3096,-0.3151,-0.3189,-0.3195,-0.331,-0.3359,-0.3184,-0.3036,-0.3094,-0.3054,-0.3305,-0.3439,-0.3591,-0.3761,-0.3671,-0.3557,-0.3612,-0.3557,-0.3476,-0.366,-0.3646,-0.3604,-0.3604,-0.3604,-0.3604,-0.3604,-0.3604,-0.2977,-0.2931,-0.2964,-0.2858,-0.286,-0.2688,-0.2584,-0.2357,-0.2255,-0.2036,-0.204,-0.2141,-0.2795,-0.362,-0.375,-0.3644,-0.3501,-0.3474,-0.3394,-0.3561,-0.3569,-0.3577,-0.356,-0.3501,-0.3501,-0.3164,-0.3162,-0.316]},{"header":{"parameterUnit":"m.s-1","parameterCategory":2,"la1":30.2991,"la2":30.254,"lo1":-89.0895,"lo2":-89.0444,"dy":0.0017,"dx":0.0017,"nx":28,"ny":28,"refTime":"2024-03-01T09:00:00:Z","depth":"0","parameterNumber":3,"parameterNumberName":"V-component_of_CURRENTS"},"data":[0,0,0,0,0,0,0,0,0,0,0,0,0,0,0,0,0,0,0,0,0,0,0,0,0,0,0,0,0,0,0,0,0,0,0,0,0,0,0,0,0,0,0,0,0,0,0,0,0,0,0,0,0,0,0,0,0,0,0.0223,0.0225,0,0.0453,0.0455,0.0458,0.0568,0.0568,0.0568,0.0568,0.0818,0.0825,0.0832,0,0,0,0,0,0,0,0,0,0,0,0,0,-0.0011,-0.0008,0.0223,0.0226,0.0229,0.0452,0.0455,0.0458,0.0568,0.0568,0.0568,0.0568,0.0816,0.0824,0.0832,0,0,0,0,0,0,0,0,0,0,0,0,0,0.0141,-0.0007,0.0222,0.031,0.0321,0.0452,0.0455,0.0459,0.0568,0.0568,0.0568,0.0568,0.0813,0.0823,0.0833,0.0897,0,0,0.0864,0.0868,0,0,0,0,0,0,0,0,0.0132,0.0149,0.0295,0.0305,0.0316,0.0482,0.0465,0.0607,0.0568,0.0474,0.0568,0.0568,0.0708,0.0727,0.0769,0.0909,0.0919,0.0865,0.0871,0.0875,0.0878,0,0,0,0,0,0,0,0.0121,0.0141,0.0313,0.0298,0.0311,0.0376,0.0397,0.0493,0.0588,0.0482,0.049,0.0517,0.0714,0.0759,0.0776,0.0923,0.0865,0.0874,0.088,0.0884,0.1134,0.1134,0,0,0,0,0,0,0.0089,0.013,0.0306,0.032,0.0223,0.038,0.0403,0.0428,0.0587,0.0612,0.0516,0.0521,0.0742,0.0764,0.0785,0.0863,0.0875,0.0885,0.0891,0.1133,0.1134,0.1135,0,0,0,0,0,0,0.0083,0.0102,0.0297,0.0231,0.026,0.0383,0.0412,0.0433,0.0479,0.0614,0.0638,0.054,0.0743,0.0771,0.0872,0.0874,0.0889,0.0898,0.1133,0.1133,0.1134,0.1024,0,0,0,0,0,0,0.0075,0.0098,0.0096,0.0228,0.0263,0.0359,0.0413,0.0438,0.0495,0.0503,0.0642,0.0665,0.0745,0.0856,0.0882,0.0888,0.0906,0.1132,0.1133,0.1134,0.1027,0.1021,0.1016,0,0,0,0,0,0.0066,0.0062,0.0095,0.0116,0.0259,0.0359,0.0382,0.0469,0.0496,0.0511,0.061,0.0661,0.0881,0.0865,0.0895,0.0904,0.1131,0.1133,0.1134,0.1029,0.1022,0.1016,0,0,0,0,0,0,-0.0047,0.0077,0.0115,0.0147,0.0238,0.0377,0.0397,0.0462,0.0554,0.0558,0.068,0.0711,0.0794,0.0869,0.0849,0.098,0.1011,0.1018,0.0921,0.0915,0.091,0.0877,0.0915,0,0,0,0,0,-0.0072,-0.0041,0.0087,0.0108,0.0148,0.027,0.0319,0.0382,0.0485,0.0525,0.0624,0.0729,0.0826,0.0883,0.0973,0.1055,0.1133,0.1078,0.1073,0.1067,0.1062,0.1183,0.1188,0.1139,0.1139,0.1139,0,0,-0.0114,-0.004,-0.0025,0.0086,0.0161,0.0211,0.0299,0.0364,0.0408,0.0539,0.0615,0.0711,0.0841,0.0926,0.097,0.099,0.1123,0.1069,0.1063,0.1061,0.1185,0.119,0.1194,0.114,0.114,0.114,0,0,-0.0178,-0.0113,-0.0109,-0.0037,0.0071,0.0156,0.0168,0.0302,0.0362,0.0455,0.0554,0.0655,0.0799,0.0899,0.0968,0.0991,0.1084,0.1011,0.097,0.1087,0.1091,0.1097,0.1198,0.1213,0.1016,0.1016,0.1016,0,-0.0239,-0.0209,-0.0095,-0.0067,-0.0021,0.0121,0.0136,0.0227,0.0374,0.0434,0.0456,0.069,0.0789,0.0922,0.0922,0.0979,0.1051,0.0979,0.1078,0.1085,0.1092,0.1195,0.1213,0.1011,0.1011,0.1012,0.1012,0,-0.0286,-0.0268,-0.026,-0.0177,-0.0107,-0.0075,0.0068,0.0138,0.0224,0.0332,0.0468,0.0614,0.0754,0.0799,0.0869,0.0974,0.1011,0.1047,0.1085,0.109,0.1198,0.1219,0.1003,0.1005,0.1007,0.1008,0,0,-0.0414,-0.032,-0.032,-0.0311,-0.0168,-0.012,-0.0033,0.0095,0.0165,0.0301,0.0395,0.0563,0.0652,0.0734,0.0843,0.0946,0.1055,0.1002,0.1011,0.1086,0.1304,0.1507,0.155,0.1105,0.1108,0.111,0.1358,0,-0.0496,-0.0507,-0.0408,-0.0407,-0.0401,-0.024,-0.0163,-0.002,0.0122,0.0251,0.0427,0.0557,0.0627,0.0697,0.0806,0.1011,0.1105,0.0984,0.1304,0.1314,0.1481,0.158,0.1812,0.2069,0.1379,0.1382,0.1385,0,-0.0577,-0.0572,-0.0601,-0.0525,-0.0502,-0.0458,-0.0301,-0.0213,0.0025,0.0136,0.0305,0.0464,0.066,0.0694,0.1024,0.0943,0.1094,0.1238,0.1252,0.1496,0.1558,0.1958,0.2133,0.2411,0.1418,0.1415,0.1413,0,-0.0735,-0.0706,-0.0744,-0.0719,-0.0599,-0.0561,-0.0477,-0.0252,-0.0162,0.0074,0.0187,0.0429,0.0588,0.0799,0.1121,0.1069,0.1485,0.1458,0.1777,0.1792,0.2084,0.2122,0.256,0.1653,0.1652,0.1651,0.1651,0,-0.086,-0.0892,-0.0828,-0.0844,-0.0859,-0.0707,-0.0646,-0.051,-0.0299,-0.0138,0.0105,0.031,0.0623,0.0922,0.1132,0.1573,0.1508,0.1806,0.1893,0.2054,0.2084,0.2414,0.2441,0.1661,0.1659,0.1657,0.1655,0,-0.102,-0.0984,-0.1031,-0.0957,-0.0937,-0.0944,-0.0793,-0.0722,-0.0488,-0.027,-0.0191,0.0236,0.0696,0.1032,0.1452,0.1651,0.2215,0.2141,0.2312,0.2416,0.2958,0.2966,0.336,0.3573,0.2533,0.254,0.2545,0,-0.1102,-0.1147,-0.1148,-0.1184,-0.1157,-0.113,-0.1081,-0.0865,-0.0732,-0.0257,-0.0138,0.0361,0.0835,0.1546,0.1993,0.2462,0.2555,0.2878,0.2826,0.3079,0.315,0.3058,0.3199,0.3158,0.3168,0.3177,0.3184,0,-0.1254,-0.1257,-0.1293,-0.1377,-0.1377,-0.1348,-0.1229,-0.1134,-0.0777,-0.0489,0.0057,0.0486,0.1308,0.2106,0.2709,0.2925,0.3138,0.3067,0.3314,0.3687,0.3634,0.3852,0.2862,0.3259,0.3252,0.3246,0.3242,0.3239,-0.136,-0.1437,-0.1487,-0.1555,-0.1561,-0.1481,-0.1363,-0.1169,-0.0873,-0.0345,0.0165,0.0941,0.2136,0.3112,0.338,0.4021,0.3751,0.42,0.4188,0.407,0.4304,0.3478,0.3977,0.3974,0.3971,0.3969,0.3966,0,-0.1477,-0.1545,-0.1646,-0.1671,-0.1656,-0.1609,-0.1385,-0.1199,-0.0784,-0.0336,0.0295,0.1883,0.3038,0.3886,0.4883,0.5165,0.5094,0.5242,0.5184,0.5277,0.4602,0.4666,0.5359,0.5359,0.5359,0.5358,0.5358,0.5357,-0.1538,-0.1671,-0.1714,-0.1724,-0.1686,-0.147,-0.1279,-0.1067,-0.0719,0.0136,0.0989,0.1774,0.3192,0.5039,0.5954,0.5983,0.616,0.6106,0.6151,0.57,0.5599,0.5504,0.5581,0.6455,0.6456,0.6895,0.69,0.6903]}],[{"header":{"parameterUnit":"m.s-1","parameterCategory":2,"la1":30.2991,"la2":30.254,"lo1":-89.0895,"lo2":-89.0444,"dy":0.0017,"dx":0.0017,"nx":28,"ny":28,"refTime":"2024-03-01T09:00:00:Z","depth":"2","parameterNumber":2,"parameterNumberName":"U-component_of_CURRENTS"},"data":[0,0,0,0,0,0,0,0,0,0,0,0,0,0,0,0,0,0,0,0,0,0,0,0,0,0,0,0,0,0,0,0,0,0,0,0,0,0,0,0,0,0,0,0,0,0,0,0,0,0,0,0,0,0,0,0,0,0,-0.3877,-0.3878,0,-0.3874,-0.3873,-0.3872,-0.3834,-0.3834,-0.3834,-0.3834,-0.3679,-0.3675,-0.3671,0,0,0,0,0,0,0,0,0,0,0,0,0,-0.3652,-0.3657,-0.3877,-0.3878,-0.3879,-0.3874,-0.3873,-0.3872,-0.3834,-0.3834,-0.3834,-0.3834,-0.368,-0.3675,-0.367,0,0,0,0,0,0,0,0,0,0,0,0,0,-0.37,-0.3659,-0.3877,-0.3866,-0.3866,-0.3874,-0.3873,-0.3872,-0.3834,-0.3834,-0.3834,-0.3834,-0.3682,-0.3676,-0.367,-0.3633,0,0,-0.3651,-0.3648,0,0,0,0,0,0,0,0,-0.3698,-0.3708,-0.3867,-0.3867,-0.3867,-0.3863,-0.3738,-0.3788,-0.3834,-0.3835,-0.3834,-0.3834,-0.3733,-0.3723,-0.371,-0.3626,-0.3619,-0.365,-0.3647,-0.3644,-0.3642,0,0,0,0,0,0,0,-0.3695,-0.3706,-0.3865,-0.3868,-0.3868,-0.3795,-0.3803,-0.3746,-0.3774,-0.3835,-0.3835,-0.3851,-0.373,-0.3716,-0.3706,-0.3617,-0.3651,-0.3645,-0.3641,-0.3639,-0.3487,-0.3487,0,0,0,0,0,0,-0.3727,-0.3705,-0.3866,-0.3866,-0.3792,-0.3801,-0.3808,-0.3856,-0.3778,-0.377,-0.3851,-0.3849,-0.3726,-0.3713,-0.37,-0.3669,-0.3644,-0.3638,-0.3635,-0.3488,-0.3487,-0.3487,0,0,0,0,0,0,-0.3723,-0.3743,-0.3866,-0.379,-0.3803,-0.3807,-0.3859,-0.3856,-0.3851,-0.3793,-0.378,-0.3852,-0.3726,-0.3709,-0.3653,-0.3662,-0.3636,-0.363,-0.3488,-0.3488,-0.3487,-0.3596,0,0,0,0,0,0,-0.3717,-0.3742,-0.3772,-0.3795,-0.3809,-0.3878,-0.386,-0.3857,-0.3866,-0.3863,-0.3789,-0.3775,-0.3725,-0.3663,-0.3647,-0.3653,-0.3625,-0.3489,-0.3488,-0.3487,-0.3593,-0.3599,-0.3605,0,0,0,0,0,-0.3709,-0.3763,-0.3775,-0.3793,-0.3857,-0.3879,-0.3878,-0.3871,-0.3866,-0.3865,-0.3814,-0.3777,-0.3647,-0.3658,-0.3639,-0.3644,-0.3489,-0.3488,-0.3487,-0.359,-0.3598,-0.3605,0,0,0,0,0,0,-0.3675,-0.3766,-0.3779,-0.3856,-0.387,-0.3877,-0.3882,-0.388,-0.3841,-0.3835,-0.3771,-0.3752,-0.3707,-0.3655,-0.3668,-0.3596,-0.3562,-0.3558,-0.3647,-0.3653,-0.3659,-0.3687,-0.362,0,0,0,0,0,-0.3688,-0.3752,-0.3804,-0.3856,-0.3873,-0.3876,-0.3882,-0.3884,-0.3865,-0.3849,-0.3799,-0.3739,-0.3687,-0.3657,-0.3598,-0.3558,-0.3536,-0.3547,-0.3553,-0.3559,-0.3567,-0.3545,-0.3551,-0.3484,-0.3484,-0.3484,0,0,-0.3685,-0.3745,-0.3778,-0.3852,-0.386,-0.3883,-0.3877,-0.3898,-0.3904,-0.3834,-0.3806,-0.3755,-0.368,-0.3638,-0.3613,-0.3599,-0.3568,-0.3558,-0.3564,-0.3568,-0.3545,-0.3552,-0.3558,-0.3484,-0.3484,-0.3484,0,0,-0.3695,-0.3769,-0.3811,-0.3838,-0.3879,-0.3889,-0.3903,-0.3915,-0.3908,-0.3881,-0.3836,-0.3797,-0.3707,-0.3671,-0.3638,-0.3638,-0.36,-0.3613,-0.3667,-0.3647,-0.3653,-0.3658,-0.3661,-0.3666,-0.3618,-0.3618,-0.3618,0,-0.368,-0.3761,-0.3814,-0.3853,-0.3882,-0.3898,-0.3926,-0.3924,-0.3908,-0.3906,-0.388,-0.3784,-0.3726,-0.3694,-0.3697,-0.3655,-0.3643,-0.3654,-0.3659,-0.3663,-0.3667,-0.3668,-0.3672,-0.3623,-0.3622,-0.3622,-0.3621,0,-0.3712,-0.3773,-0.3798,-0.3866,-0.3896,-0.3927,-0.3955,-0.3962,-0.3956,-0.3948,-0.3917,-0.3846,-0.3793,-0.3772,-0.3732,-0.3729,-0.3714,-0.3674,-0.3654,-0.3681,-0.3679,-0.3682,-0.363,-0.3629,-0.3627,-0.3626,0,0,-0.3679,-0.38,-0.3804,-0.3848,-0.3916,-0.3946,-0.3972,-0.4001,-0.4025,-0.3987,-0.3999,-0.3921,-0.3895,-0.3856,-0.3809,-0.3797,-0.3819,-0.3756,-0.3752,-0.3782,-0.3796,-0.3783,-0.3783,-0.3785,-0.3785,-0.3785,-0.3795,0,-0.3676,-0.3761,-0.3822,-0.3885,-0.3932,-0.3982,-0.4013,-0.4041,-0.4044,-0.4053,-0.4007,-0.3981,-0.3923,-0.3907,-0.3887,-0.3829,-0.3825,-0.3822,-0.3744,-0.3742,-0.3745,-0.3785,-0.3345,-0.3316,-0.3796,-0.3797,-0.3797,0,-0.367,-0.3743,-0.3809,-0.3931,-0.3956,-0.3984,-0.4063,-0.4092,-0.4117,-0.4123,-0.4103,-0.4066,-0.4039,-0.3985,-0.3921,-0.3922,-0.3872,-0.3833,-0.3831,-0.3781,-0.3731,-0.3357,-0.3301,-0.3799,-0.3799,-0.3799,-0.3799,0,-0.3613,-0.3731,-0.3791,-0.3829,-0.3955,-0.3985,-0.4038,-0.4091,-0.4133,-0.4157,-0.4186,-0.4141,-0.4122,-0.4052,-0.3965,-0.3945,-0.3905,-0.3859,-0.3805,-0.3804,-0.3395,-0.3358,-0.3824,-0.3824,-0.3824,-0.3824,-0.3824,0,-0.3596,-0.3637,-0.3767,-0.38,-0.3873,-0.3966,-0.4027,-0.4079,-0.4155,-0.4209,-0.4203,-0.4218,-0.4138,-0.4099,-0.4008,-0.3922,-0.3931,-0.3832,-0.3807,-0.3423,-0.3391,-0.3769,-0.3763,-0.3824,-0.3824,-0.3824,-0.3824,0,-0.3503,-0.3593,-0.3661,-0.3797,-0.3841,-0.3878,-0.4019,-0.4078,-0.4159,-0.423,-0.4245,-0.4278,-0.4222,-0.4148,-0.4048,-0.3982,-0.3895,-0.3859,-0.3442,-0.337,-0.3801,-0.38,-0.3809,-0.3809,-0.3809,-0.3808,-0.3808,0,-0.3466,-0.349,-0.3623,-0.3659,-0.3709,-0.38,-0.3881,-0.4034,-0.4112,-0.4249,-0.4284,-0.4283,-0.4188,-0.4072,-0.3854,-0.3691,-0.3879,-0.3394,-0.3284,-0.3826,-0.38,-0.38,-0.3799,-0.2773,-0.2765,-0.2758,-0.2752,0,-0.3361,-0.339,-0.344,-0.3532,-0.3614,-0.3707,-0.3831,-0.3894,-0.4084,-0.4086,-0.4107,-0.4031,-0.3926,-0.3512,-0.3392,-0.3282,-0.3384,-0.3257,-0.3864,-0.2893,-0.2862,-0.2835,-0.2864,-0.2689,-0.2695,-0.27,-0.2703,-0.2705,-0.3233,-0.3233,-0.3292,-0.3356,-0.3466,-0.3522,-0.344,-0.3492,-0.347,-0.3333,-0.3651,-0.3294,-0.3368,-0.277,-0.2743,-0.2726,-0.2942,-0.2876,-0.289,-0.2913,-0.2839,-0.2814,-0.2618,-0.2624,-0.2629,-0.2633,-0.2637,0,-0.2998,-0.3065,-0.3122,-0.3161,-0.3079,-0.3283,-0.3332,-0.3104,-0.2785,-0.2769,-0.2572,-0.2245,-0.1983,-0.2121,-0.1875,-0.2008,-0.1918,-0.2102,-0.1894,-0.1954,-0.2009,-0.1884,-0.1412,-0.141,-0.1408,-0.1407,0,0,-0.2874,-0.2798,-0.283,-0.2667,-0.2726,-0.2435,-0.2327,-0.2118,-0.1919,-0.1518,-0.127,-0.1369,-0.1695,-0.131,-0.1449,-0.1352,-0.1617,-0.1325,-0.2264,-0.2045,-0.2095,-0.2391,-0.2262,0,0,0,0,0]},{"header":{"parameterUnit":"m.s-1","parameterCategory":2,"la1":30.2991,"la2":30.254,"lo1":-89.0895,"lo2":-89.0444,"dy":0.0017,"dx":0.0017,"nx":28,"ny":28,"refTime":"2024-03-01T09:00:00:Z","depth":"2","parameterNumber":3,"parameterNumberName":"V-component_of_CURRENTS"},"data":[0,0,0,0,0,0,0,0,0,0,0,0,0,0,0,0,0,0,0,0,0,0,0,0,0,0,0,0,0,0,0,0,0,0,0,0,0,0,0,0,0,0,0,0,0,0,0,0,0,0,0,0,0,0,0,0,0,0,0.0195,0.0198,0,0.0425,0.0427,0.043,0.054,0.054,0.054,0.054,0.079,0.0797,0.0803,0,0,0,0,0,0,0,0,0,0,0,0,0,-0.0037,-0.0034,0.0195,0.0198,0.0201,0.0424,0.0427,0.043,0.054,0.054,0.054,0.054,0.0788,0.0796,0.0804,0,0,0,0,0,0,0,0,0,0,0,0,0,0.0114,-0.0033,0.0195,0.0283,0.0293,0.0423,0.0427,0.0431,0.054,0.054,0.054,0.054,0.0786,0.0795,0.0805,0.0868,0,0,0.0836,0.084,0,0,0,0,0,0,0,0,0.0105,0.0123,0.0267,0.0277,0.0289,0.0454,0.0437,0.0578,0.054,0.0446,0.054,0.054,0.068,0.0699,0.0741,0.088,0.089,0.0837,0.0843,0.0847,0.085,0,0,0,0,0,0,0,0.0095,0.0114,0.0286,0.027,0.0284,0.0349,0.0369,0.0465,0.0561,0.0454,0.0463,0.0489,0.0686,0.0731,0.0748,0.0894,0.0836,0.0845,0.0852,0.0855,0.1104,0.1105,0,0,0,0,0,0,0.0062,0.0104,0.0278,0.0292,0.0196,0.0353,0.0376,0.0401,0.056,0.0584,0.0489,0.0493,0.0714,0.0736,0.0757,0.0835,0.0847,0.0856,0.0862,0.1104,0.1105,0.1105,0,0,0,0,0,0,0.0056,0.0075,0.0269,0.0204,0.0233,0.0356,0.0384,0.0405,0.0451,0.0586,0.061,0.0512,0.0715,0.0743,0.0843,0.0846,0.0861,0.087,0.1103,0.1104,0.1105,0.0995,0,0,0,0,0,0,0.0048,0.0072,0.007,0.0201,0.0235,0.0331,0.0385,0.041,0.0468,0.0476,0.0614,0.0637,0.0717,0.0828,0.0853,0.086,0.0878,0.1102,0.1104,0.1105,0.0998,0.0992,0.0987,0,0,0,0,0,0.0039,0.0035,0.0068,0.0089,0.0231,0.0331,0.0354,0.0442,0.0468,0.0483,0.0582,0.0633,0.0853,0.0837,0.0867,0.0876,0.1102,0.1103,0.1105,0.1001,0.0994,0.0988,0,0,0,0,0,0,-0.0073,0.005,0.0088,0.012,0.021,0.0349,0.0369,0.0434,0.0526,0.053,0.0652,0.0683,0.0766,0.0841,0.082,0.0951,0.0982,0.0989,0.0893,0.0887,0.0882,0.085,0.0886,0,0,0,0,0,-0.0098,-0.0068,0.006,0.0081,0.0121,0.0243,0.0291,0.0354,0.0458,0.0498,0.0596,0.0701,0.0797,0.0854,0.0944,0.1026,0.1104,0.1049,0.1044,0.1039,0.1033,0.1154,0.1159,0.111,0.111,0.111,0,0,-0.014,-0.0066,-0.0052,0.0059,0.0134,0.0184,0.0271,0.0337,0.0381,0.0511,0.0587,0.0683,0.0813,0.0898,0.0942,0.0961,0.1095,0.104,0.1035,0.1033,0.1156,0.1161,0.1165,0.1111,0.111,0.111,0,0,-0.0204,-0.0139,-0.0135,-0.0064,0.0044,0.0129,0.0141,0.0275,0.0335,0.0428,0.0527,0.0628,0.0771,0.0871,0.0939,0.0963,0.1055,0.0983,0.0942,0.1059,0.1064,0.1069,0.117,0.1185,0.0988,0.0988,0.0988,0,-0.0265,-0.0235,-0.0121,-0.0093,-0.0047,0.0094,0.0109,0.02,0.0347,0.0407,0.0429,0.0662,0.0761,0.0894,0.0895,0.0951,0.1023,0.0952,0.105,0.1057,0.1064,0.1167,0.1185,0.0983,0.0983,0.0984,0.0984,0,-0.0312,-0.0294,-0.0286,-0.0203,-0.0133,-0.0101,0.0042,0.0112,0.0198,0.0306,0.0442,0.0587,0.0727,0.0772,0.0842,0.0946,0.0983,0.102,0.1057,0.1062,0.117,0.1191,0.0975,0.0977,0.0979,0.098,0,0,-0.0438,-0.0345,-0.0345,-0.0336,-0.0193,-0.0146,-0.0059,0.007,0.0139,0.0275,0.0369,0.0537,0.0625,0.0708,0.0817,0.0919,0.1028,0.0975,0.0984,0.1059,0.1277,0.1479,0.1522,0.1078,0.1081,0.1083,0.133,0,-0.052,-0.0531,-0.0432,-0.0431,-0.0425,-0.0265,-0.0188,-0.0045,0.0097,0.0225,0.0401,0.0531,0.0601,0.0671,0.078,0.0984,0.1078,0.0957,0.1276,0.1286,0.1453,0.1552,0.0912,0.1095,0.1351,0.1354,0.1357,0,-0.0601,-0.0596,-0.0624,-0.0549,-0.0525,-0.0482,-0.0325,-0.0237,-0.0,0.0111,0.028,0.0438,0.0634,0.0669,0.0998,0.0917,0.1068,0.1211,0.1225,0.1468,0.1529,0.1137,0.1124,0.1393,0.139,0.1387,0.1385,0,-0.0758,-0.0729,-0.0766,-0.0742,-0.0622,-0.0583,-0.05,-0.0276,-0.0186,0.0049,0.0162,0.0403,0.0562,0.0772,0.1095,0.1042,0.1457,0.143,0.1749,0.1763,0.1313,0.1288,0.1625,0.1624,0.1624,0.1623,0.1622,0,-0.0882,-0.0914,-0.085,-0.0866,-0.0881,-0.0729,-0.0669,-0.0533,-0.0322,-0.0162,0.008,0.0285,0.0597,0.0895,0.1105,0.1545,0.148,0.1778,0.1864,0.1265,0.1233,0.1559,0.1548,0.1632,0.163,0.1629,0.1627,0,-0.1041,-0.1006,-0.1052,-0.0978,-0.0958,-0.0965,-0.0815,-0.0744,-0.0511,-0.0293,-0.0215,0.0211,0.0671,0.1005,0.1425,0.1623,0.1968,0.2112,0.1412,0.1419,0.2169,0.2149,0.2484,0.2494,0.2502,0.2509,0.2515,0,-0.1122,-0.1168,-0.1168,-0.1204,-0.1177,-0.115,-0.1102,-0.0886,-0.0754,-0.0281,-0.0162,0.0336,0.0738,0.1447,0.1589,0.1966,0.2255,0.194,0.1769,0.2219,0.2268,0.2235,0.2205,0.1075,0.1069,0.1064,0.1059,0,-0.1273,-0.1277,-0.1312,-0.1397,-0.1397,-0.1368,-0.125,-0.1155,-0.08,-0.0566,-0.0021,0.0337,0.0859,0.1046,0.1529,0.1704,0.1829,0.1874,0.2468,0.1053,0.0939,0.0974,0.0979,0.1012,0.1017,0.102,0.1023,0.1025,-0.1379,-0.1456,-0.1506,-0.1573,-0.1581,-0.1502,-0.1384,-0.1348,-0.1124,-0.0718,-0.0278,0.0102,0.0444,0.0796,0.1166,0.1461,0.1561,0.1689,0.168,0.1683,0.1573,0.1491,0.1641,0.1649,0.1656,0.1662,0.1668,0,-0.15,-0.1563,-0.1664,-0.1689,-0.171,-0.1629,-0.1406,-0.1298,-0.1142,-0.0878,-0.0589,-0.0367,-0.023,0.0386,0.0488,0.087,0.0609,0.1251,0.0695,0.0729,0.0763,0.0591,0.0409,0.0411,0.0413,0.0415,0,0,-0.1562,-0.1698,-0.1742,-0.1791,-0.1748,-0.1687,-0.15,-0.1389,-0.1215,-0.0999,-0.0869,-0.089,-0.0237,-0.0279,0.0008,0.0257,0.0514,0.032,0.12,0.0521,0.0558,0.079,0.0542,0,0,0,0,0]}],[{"header":{"parameterUnit":"m.s-1","parameterCategory":2,"la1":30.2991,"la2":30.254,"lo1":-89.0895,"lo2":-89.0444,"dy":0.0017,"dx":0.0017,"nx":28,"ny":28,"refTime":"2024-03-01T09:00:00:Z","depth":"4","parameterNumber":2,"parameterNumberName":"U-component_of_CURRENTS"},"data":[0,0,0,0,0,0,0,0,0,0,0,0,0,0,0,0,0,0,0,0,0,0,0,0,0,0,0,0,0,0,0,0,0,0,0,0,0,0,0,0,0,0,0,0,0,0,0,0,0,0,0,0,0,0,0,0,0,0,-0.1605,-0.1606,0,-0.1683,-0.1684,-0.1684,-0.1736,-0.1737,-0.1737,-0.1738,-0.1767,-0.1767,-0.1767,0,0,0,0,0,0,0,0,0,0,0,0,0,-0.1489,-0.149,-0.1605,-0.1606,-0.1608,-0.1683,-0.1684,-0.1685,-0.1736,-0.1737,-0.1738,-0.1738,-0.1767,-0.1767,-0.1767,0,0,0,0,0,0,0,0,0,0,0,0,0,-0.1547,-0.1491,-0.1605,-0.1645,-0.165,-0.1683,-0.1684,-0.1685,-0.1736,-0.1737,-0.1738,-0.1739,-0.1767,-0.1767,-0.1767,-0.1748,0,0,-0.1768,-0.1768,0,0,0,0,0,0,0,0,-0.1543,-0.1551,-0.1638,-0.1642,-0.1648,-0.1704,-0.1654,-0.1705,-0.1736,-0.1699,-0.1738,-0.1739,-0.1743,-0.1745,-0.1753,-0.1749,-0.175,-0.1768,-0.1768,-0.1768,-0.1768,0,0,0,0,0,0,0,-0.1539,-0.1547,-0.1632,-0.1639,-0.1645,-0.1656,-0.1665,-0.1663,-0.1711,-0.1702,-0.1707,-0.1721,-0.1745,-0.1753,-0.1754,-0.1751,-0.1768,-0.1768,-0.1768,-0.1768,-0.1846,-0.1848,0,0,0,0,0,0,-0.1537,-0.1544,-0.163,-0.1635,-0.1601,-0.1657,-0.1667,-0.1682,-0.1712,-0.1719,-0.1721,-0.1724,-0.1752,-0.1754,-0.1755,-0.1862,-0.1768,-0.1768,-0.1768,-0.1844,-0.1847,-0.1849,0,0,0,0,0,0,-0.1534,-0.1544,-0.1627,-0.1594,-0.1606,-0.1659,-0.1675,-0.1683,-0.173,-0.1727,-0.1732,-0.1763,-0.1753,-0.1755,-0.1801,-0.1858,-0.1768,-0.1768,-0.1842,-0.1845,-0.1848,-0.1993,0,0,0,0,0,0,-0.153,-0.1542,-0.1563,-0.1594,-0.1608,-0.1679,-0.1674,-0.1684,-0.1736,-0.1742,-0.1764,-0.1766,-0.1754,-0.1801,-0.1801,-0.1857,-0.1768,-0.184,-0.1843,-0.1847,-0.1986,-0.2001,-0.2014,0,0,0,0,0,-0.1526,-0.1547,-0.1563,-0.1575,-0.1631,-0.1681,-0.169,-0.1727,-0.1738,-0.177,-0.1791,-0.1767,-0.1824,-0.1803,-0.1803,-0.186,-0.1838,-0.1842,-0.1847,-0.198,-0.1998,-0.2013,0,0,0,0,0,0,-0.1509,-0.1556,-0.1574,-0.161,-0.1659,-0.1692,-0.1725,-0.1748,-0.179,-0.1802,-0.1794,-0.1798,-0.1858,-0.1833,-0.181,-0.1891,-0.1826,-0.1831,-0.1927,-0.1944,-0.1958,-0.1961,-0.1768,0,0,0,0,0,-0.1513,-0.1543,-0.1593,-0.1626,-0.1653,-0.1695,-0.1724,-0.1755,-0.179,-0.1812,-0.1832,-0.1848,-0.1868,-0.1888,-0.1895,-0.194,-0.1903,-0.1974,-0.1988,-0.2,-0.2001,-0.1997,-0.201,-0.1863,-0.1863,-0.1863,0,0,-0.1513,-0.1546,-0.1563,-0.1625,-0.1662,-0.1727,-0.1716,-0.1777,-0.1842,-0.1805,-0.1898,-0.1897,-0.1889,-0.1948,-0.1972,-0.1942,-0.2026,-0.2005,-0.2016,-0.201,-0.2003,-0.2017,-0.2029,-0.1866,-0.1866,-0.1865,0,0,-0.1531,-0.1564,-0.16,-0.1655,-0.1729,-0.1763,-0.1792,-0.1856,-0.1898,-0.1974,-0.1968,-0.2005,-0.204,-0.2054,-0.2059,-0.2147,-0.2096,-0.2154,-0.2235,-0.2232,-0.2244,-0.2254,-0.2243,-0.2251,-0.2165,-0.2165,-0.2165,0,-0.1531,-0.1594,-0.1621,-0.1687,-0.1747,-0.1789,-0.1865,-0.1913,-0.199,-0.2027,-0.2025,-0.2091,-0.209,-0.2153,-0.2193,-0.2181,-0.2164,-0.2178,-0.2251,-0.226,-0.2267,-0.2253,-0.226,-0.2173,-0.2172,-0.2171,-0.217,0,-0.1577,-0.1655,-0.1687,-0.1787,-0.1851,-0.1924,-0.2002,-0.2071,-0.2122,-0.216,-0.224,-0.2242,-0.2275,-0.2291,-0.2275,-0.234,-0.2306,-0.2267,-0.2211,-0.2291,-0.2271,-0.2275,-0.2184,-0.2181,-0.2179,-0.2177,0,0,-0.151,-0.1685,-0.1704,-0.1787,-0.192,-0.1974,-0.2092,-0.2195,-0.2265,-0.2329,-0.2404,-0.2453,-0.2442,-0.2445,-0.2432,-0.244,-0.2493,-0.2392,-0.2388,-0.2385,-0.2488,-0.2346,-0.2337,-0.2471,-0.2472,-0.2473,-0.2457,0,-0.1547,-0.1694,-0.1774,-0.1932,-0.2019,-0.2116,-0.222,-0.2317,-0.2383,-0.2463,-0.2477,-0.2531,-0.2505,-0.2523,-0.2536,-0.2494,-0.2508,-0.25,-0.2405,-0.2402,-0.227,-0.2338,-0.2477,-0.246,-0.2461,-0.2462,-0.2462,0,-0.1561,-0.1671,-0.1827,-0.2028,-0.2073,-0.217,-0.2333,-0.2429,-0.2537,-0.2586,-0.2638,-0.2638,-0.2678,-0.2629,-0.2617,-0.2615,-0.2572,-0.2533,-0.2531,-0.2346,-0.2268,-0.2357,-0.2469,-0.2468,-0.2468,-0.2467,-0.2467,0,-0.1496,-0.1707,-0.1837,-0.1908,-0.2126,-0.2214,-0.2323,-0.2458,-0.2535,-0.2647,-0.2692,-0.2736,-0.2741,-0.2715,-0.2646,-0.2641,-0.2602,-0.2574,-0.2411,-0.24,-0.2467,-0.2455,-0.2567,-0.2567,-0.2567,-0.2567,-0.2567,0,-0.1492,-0.1602,-0.1823,-0.1898,-0.2046,-0.22,-0.2333,-0.245,-0.2583,-0.2639,-0.2735,-0.2751,-0.276,-0.2734,-0.2678,-0.2548,-0.2626,-0.2431,-0.2388,-0.253,-0.2526,-0.247,-0.2459,-0.2566,-0.2566,-0.2566,-0.2566,0,-0.1394,-0.1547,-0.1702,-0.1943,-0.202,-0.2115,-0.233,-0.24,-0.2559,-0.2631,-0.2665,-0.2762,-0.2715,-0.2701,-0.2636,-0.2556,-0.2465,-0.2401,-0.256,-0.2526,-0.2264,-0.2262,-0.2228,-0.2223,-0.2218,-0.2215,-0.2212,0,-0.1359,-0.143,-0.1689,-0.1757,-0.1869,-0.2031,-0.2124,-0.2348,-0.2403,-0.2591,-0.2587,-0.2632,-0.265,-0.2447,-0.2471,-0.2371,-0.2333,-0.2308,-0.229,-0.2268,-0.2231,-0.2235,-0.2238,-0.2205,-0.2204,-0.2203,-0.2201,0,-0.1269,-0.1362,-0.1476,-0.1616,-0.1736,-0.1847,-0.1994,-0.2029,-0.2239,-0.2439,-0.2424,-0.2416,-0.2366,-0.231,-0.2252,-0.2182,-0.2341,-0.2262,-0.2271,-0.2254,-0.224,-0.2209,-0.2216,-0.2187,-0.2189,-0.219,-0.2191,0,-0.1168,-0.1206,-0.1334,-0.1432,-0.1556,-0.1574,-0.1709,-0.1784,-0.1889,-0.2138,-0.2119,-0.2187,-0.2303,-0.2211,-0.2155,-0.2083,-0.2051,-0.2004,-0.2026,-0.2043,-0.1992,-0.1948,-0.1772,0,0,0,0,0,-0.1057,-0.1061,-0.1135,-0.1208,-0.1303,-0.1349,-0.1565,-0.1696,-0.1938,-0.1866,-0.1992,-0.1943,-0.1912,-0.1966,-0.1841,-0.2048,-0.2032,-0.1902,-0.1982,-0.2104,-0.2121,-0.208,0,0,0,0,0,0,-0.0976,-0.103,-0.1058,-0.0964,-0.0938,-0.1005,-0.1112,-0.1291,-0.1286,-0.1558,-0.1533,-0.1789,-0.1754,-0.1871,-0.1759,-0.1781,-0.1795,-0.1994,-0.199,-0.2094,-0.211,-0.2124,-0.2088,0,0,0,0,0]},{"header":{"parameterUnit":"m.s-1","parameterCategory":2,"la1":30.2991,"la2":30.254,"lo1":-89.0895,"lo2":-89.0444,"dy":0.0017,"dx":0.0017,"nx":28,"ny":28,"refTime":"2024-03-01T09:00:00:Z","depth":"4","parameterNumber":3,"parameterNumberName":"V-component_of_CURRENTS"},"data":[0,0,0,0,0,0,0,0,0,0,0,0,0,0,0,0,0,0,0,0,0,0,0,0,0,0,0,0,0,0,0,0,0,0,0,0,0,0,0,0,0,0,0,0,0,0,0,0,0,0,0,0,0,0,0,0,0,0,-0.0633,-0.0632,0,-0.0525,-0.0523,-0.0522,-0.0454,-0.0454,-0.0454,-0.0454,-0.03,-0.0296,-0.0292,0,0,0,0,0,0,0,0,0,0,0,0,0,-0.0674,-0.0674,-0.0633,-0.0632,-0.0631,-0.0525,-0.0523,-0.0521,-0.0454,-0.0454,-0.0454,-0.0454,-0.0302,-0.0297,-0.0292,0,0,0,0,0,0,0,0,0,0,0,0,0,-0.0618,-0.0674,-0.0633,-0.0586,-0.0581,-0.0525,-0.0523,-0.0521,-0.0454,-0.0454,-0.0454,-0.0454,-0.0303,-0.0297,-0.0291,-0.0258,0,0,-0.0273,-0.0271,0,0,0,0,0,0,0,0,-0.0621,-0.0616,-0.0594,-0.059,-0.0584,-0.0505,-0.0481,-0.0432,-0.0454,-0.05,-0.0454,-0.0454,-0.0366,-0.0355,-0.0332,-0.0251,-0.0244,-0.0273,-0.0269,-0.0266,-0.0265,0,0,0,0,0,0,0,-0.0625,-0.062,-0.0587,-0.0593,-0.0587,-0.0534,-0.0527,-0.0471,-0.0432,-0.0496,-0.0491,-0.0484,-0.0363,-0.0338,-0.0328,-0.0242,-0.0273,-0.0268,-0.0264,-0.0262,-0.005,-0.0048,0,0,0,0,0,0,-0.065,-0.0624,-0.0591,-0.0584,-0.0605,-0.0534,-0.0526,-0.0528,-0.0434,-0.042,-0.0484,-0.0481,-0.0348,-0.0335,-0.0322,-0.0224,-0.0267,-0.0261,-0.0258,-0.0052,-0.0049,-0.0047,0,0,0,0,0,0,-0.0651,-0.0648,-0.0595,-0.0603,-0.0593,-0.0535,-0.0538,-0.0526,-0.0503,-0.0426,-0.0411,-0.0473,-0.0348,-0.0331,-0.0254,-0.022,-0.0258,-0.0253,-0.0054,-0.0051,-0.0048,-0.0062,0,0,0,0,0,0,-0.0653,-0.065,-0.0665,-0.0605,-0.0593,-0.0563,-0.0538,-0.0524,-0.05,-0.0495,-0.0412,-0.0397,-0.0346,-0.0264,-0.0249,-0.0212,-0.0248,-0.0057,-0.0053,-0.0049,-0.0064,-0.0059,-0.0056,0,0,0,0,0,-0.0655,-0.0678,-0.0667,-0.0663,-0.0615,-0.0563,-0.0552,-0.0507,-0.05,-0.0487,-0.0419,-0.04,-0.0228,-0.0257,-0.024,-0.0201,-0.0059,-0.0054,-0.0049,-0.0066,-0.006,-0.0056,0,0,0,0,0,0,-0.0706,-0.0672,-0.0658,-0.0671,-0.0622,-0.0553,-0.0547,-0.0514,-0.0453,-0.0449,-0.0378,-0.0357,-0.0276,-0.0237,-0.0271,-0.0126,-0.0138,-0.013,-0.0156,-0.0151,-0.0147,-0.017,-0.0243,0,0,0,0,0,-0.0726,-0.0736,-0.068,-0.0691,-0.0671,-0.0611,-0.0589,-0.0553,-0.0491,-0.0465,-0.04,-0.0324,-0.0242,-0.0199,-0.013,-0.0058,-0.0033,-0.0018,-0.0014,-0.0011,-0.0016,0.0062,0.0071,-0.0032,-0.0032,-0.0032,0,0,-0.0754,-0.0734,-0.0743,-0.0702,-0.0666,-0.0626,-0.0596,-0.0564,-0.0517,-0.0457,-0.0382,-0.0315,-0.0221,-0.0131,-0.009,-0.0094,0.003,-0.0005,-0.0003,-0.001,0.0067,0.0077,0.0086,-0.0029,-0.0029,-0.003,0,0,-0.0792,-0.0791,-0.0798,-0.0756,-0.0704,-0.0654,-0.0648,-0.0572,-0.0528,-0.0447,-0.0382,-0.0295,-0.0185,-0.0098,-0.0042,0.0025,0.0044,0.0046,0.0054,0.0129,0.0137,0.0145,0.0171,0.0181,0.0053,0.0053,0.0053,0,-0.0826,-0.0825,-0.0789,-0.0766,-0.0737,-0.0669,-0.0644,-0.058,-0.0484,-0.0441,-0.0426,-0.0235,-0.0162,-0.0031,-0.0,0.0034,0.0056,0.0023,0.0131,0.014,0.0148,0.0173,0.0184,0.0053,0.0053,0.0053,0.0053,0,-0.0844,-0.0842,-0.0841,-0.0789,-0.0746,-0.0722,-0.0626,-0.0575,-0.0517,-0.0443,-0.0319,-0.0206,-0.0097,-0.0045,0.0001,0.0109,0.0097,0.0119,0.0108,0.0157,0.0181,0.0193,0.0053,0.0053,0.0053,0.0053,0,0,-0.0925,-0.087,-0.087,-0.0853,-0.0761,-0.073,-0.0647,-0.0552,-0.0507,-0.0386,-0.0311,-0.0141,-0.0092,-0.0025,0.0053,0.0132,0.0211,0.0144,0.0148,0.015,0.0338,0.0247,0.0251,0.0245,0.0248,0.025,0.0324,0,-0.0951,-0.0941,-0.0885,-0.0855,-0.084,-0.0746,-0.0681,-0.0581,-0.0485,-0.0393,-0.0247,-0.0148,-0.0077,-0.0032,0.0067,0.0178,0.0244,0.0186,0.0308,0.0311,0.0209,0.0263,0.0258,0.0333,0.0336,0.0338,0.0339,0,-0.0975,-0.097,-0.0961,-0.0904,-0.0887,-0.0849,-0.0749,-0.0678,-0.0521,-0.0447,-0.031,-0.0205,-0.0044,-0.0013,0.0204,0.0159,0.024,0.032,0.0325,0.0251,0.0243,0.0284,0.0361,0.0359,0.0358,0.0356,0.0355,0,-0.1051,-0.1015,-0.1021,-0.0999,-0.0919,-0.0894,-0.0844,-0.0706,-0.0656,-0.0488,-0.044,-0.0229,-0.0145,0.0022,0.0194,0.02,0.0394,0.0426,0.042,0.0413,0.0475,0.0466,0.0556,0.0556,0.0556,0.0555,0.0555,0,-0.1088,-0.1095,-0.107,-0.107,-0.1083,-0.0985,-0.0962,-0.0872,-0.0753,-0.0705,-0.0492,-0.0422,-0.0136,0.0015,0.0175,0.0322,0.0383,0.0421,0.0436,0.0466,0.0455,0.0482,0.0472,0.0558,0.0558,0.0557,0.0557,0,-0.1149,-0.1134,-0.1154,-0.112,-0.1121,-0.113,-0.1078,-0.1059,-0.0924,-0.0856,-0.0811,-0.0563,-0.0375,-0.0119,0.0141,0.0262,0.0433,0.0458,0.0436,0.0448,0.0404,0.0393,0.0476,0.0473,0.0471,0.047,0.0468,0,-0.1167,-0.1189,-0.1224,-0.127,-0.1263,-0.1272,-0.1289,-0.117,-0.1141,-0.0958,-0.0941,-0.0732,-0.0564,-0.025,0.0011,0.0305,0.0339,0.0432,0.0465,0.0394,0.0402,0.0394,0.0386,0.0465,0.0465,0.0464,0.0464,0,-0.1208,-0.1239,-0.1263,-0.1374,-0.1424,-0.1467,-0.1468,-0.1459,-0.1319,-0.1213,-0.1039,-0.0816,-0.0619,-0.0317,-0.0097,0.0118,0.0395,0.0413,0.0419,0.0451,0.0382,0.039,0.0385,0.0457,0.0458,0.0458,0.0459,0,-0.1247,-0.1296,-0.1361,-0.1444,-0.1542,-0.1614,-0.1605,-0.1549,-0.1488,-0.1259,-0.123,-0.0934,-0.0737,-0.0422,-0.022,-0.0013,0.0048,0.0144,0.0166,0.0176,0.0073,-0.0058,-0.0105,0,0,0,0,0,-0.1265,-0.1326,-0.1424,-0.1516,-0.1627,-0.1667,-0.1698,-0.1665,-0.1549,-0.1452,-0.1316,-0.1122,-0.0757,-0.0581,-0.0397,-0.0294,0.005,-0.0074,0.0161,0.0418,0.0426,0.0349,0,0,0,0,0,0,-0.1281,-0.1373,-0.1421,-0.1559,-0.1635,-0.1736,-0.1761,-0.1695,-0.1608,-0.1461,-0.1276,-0.1084,-0.0751,-0.0867,-0.0394,-0.0326,-0.0154,0.0123,0.0127,0.0413,0.0421,0.0427,0.0351,0,0,0,0,0]}]]